Weather History for Muncie, IN

Change the Weather History Date:

Friday, February 28, 2014

  Actual Average Record
Temperature  
Mean Temperature 19 °F 34 °F  
Max Temperature 34 °F 42 °F 66 °F (1976)
Min Temperature 3 °F 25 °F -10 °F (1963)
Degree Days  
Heating Degree Days 46 31  
Month to date heating degree days 1244 988  
Since 1 July heating degree days 4910 4383  
Cooling Degree Days 0 0  
Month to date cooling degree days 0 0  
Year to date cooling degree days 0 0  
Moisture  
Dew Point 3 °F    
Average Humidity 57    
Maximum Humidity 86    
Minimum Humidity 28    
Precipitation  
Precipitation 0.00 in 0.09 in 2.68 in (2011)
Month to date precipitation 2.33 2.31  
Year to date precipitation 2.96 4.54  
Sea Level Pressure  
Sea Level Pressure 30.18 in    
Wind  
Wind Speed 8 mph (SE)    
Max Wind Speed 16 mph    
Max Gust Speed 21 mph    
Visibility 10 miles    
Events      
T = Trace of Precipitation, MM = Missing Value Source: NWS Daily Summary

Daily Weather History Graph

Daily Weather History Graph

Search for Another Location

Airport:

Trip Planner

Search our weather history database for the weather conditions in past years. The results will help you decide how hot, cold, wet, or windy it might be!

Date:

Astronomy

Feb. 28, 2014 Rise Set
Actual Time 7:16 AM EST 6:32 PM EST
Civil Twilight 6:49 AM EST 6:59 PM EST
Nautical Twilight 6:17 AM EST 7:30 PM EST
Astronomical Twilight 5:46 AM EST 8:02 PM EST
Moon 6:30 AM EST (2/28) 6:08 PM EST (2/28)
Length of Visible Light 12h 10m
Length of Day
11h 15m
Waning Crescent, 1% of the Moon is Illuminated
Feb 28
Waning Crescent
Mar 1
New
Mar 8
First Quarter
Mar 16
Full
Mar 23
Last Quarter

Hourly Weather History & Observations

Time (EST) Temp. Windchill Dew Point Humidity Pressure Visibility Wind Dir Wind Speed Gust Speed Precip Events Conditions
12:53 AM 5.0 °F -4.1 °F -0.0 °F 80% 30.21 in 10.0 mi ENE 4.6 mph - N/A   Clear
1:53 AM 5.0 °F -2.1 °F -0.0 °F 80% 30.22 in 10.0 mi ENE 3.5 mph - N/A   Clear
2:53 AM 3.9 °F -3.4 °F -0.9 °F 80% 30.24 in 10.0 mi East 3.5 mph - N/A   Clear
3:53 AM 3.9 °F -6.9 °F -0.9 °F 80% 30.23 in 10.0 mi East 5.8 mph - N/A   Clear
4:53 AM 3.9 °F -6.9 °F -2.0 °F 76% 30.24 in 10.0 mi ESE 5.8 mph - N/A   Clear
5:53 AM 3.9 °F -8.2 °F -2.0 °F 76% 30.24 in 10.0 mi ESE 6.9 mph - N/A   Clear
6:53 AM 5.0 °F -8.1 °F -2.0 °F 73% 30.25 in 10.0 mi ESE 8.1 mph - N/A   Clear
7:53 AM 7.0 °F -6.6 °F -2.0 °F 67% 30.27 in 10.0 mi SE 9.2 mph - N/A   Clear
8:53 AM 10.9 °F -4.7 °F -0.0 °F 61% 30.27 in 10.0 mi SSE 13.8 mph - N/A   Clear
9:53 AM 15.1 °F 2.5 °F 1.9 °F 56% 30.27 in 10.0 mi SSE 10.4 mph - N/A   Clear
10:53 AM 19.0 °F 9.0 °F 3.0 °F 50% 30.27 in 10.0 mi SSE 8.1 mph - N/A   Clear
11:53 AM 21.9 °F 11.0 °F 1.9 °F 42% 30.25 in 10.0 mi SSE 10.4 mph - N/A   Clear
12:53 PM 26.1 °F 16.2 °F 1.9 °F 35% 30.21 in 10.0 mi SSE 10.4 mph 16.1 mph N/A   Clear
1:53 PM 28.0 °F 19.3 °F 1.9 °F 33% 30.18 in 10.0 mi SSE 9.2 mph - N/A   Clear
2:53 PM 30.9 °F 21.2 °F 3.9 °F 32% 30.15 in 10.0 mi South 12.7 mph - N/A   Clear
3:53 PM 32.0 °F 24.8 °F 5.0 °F 32% 30.13 in 10.0 mi SE 8.1 mph 17.3 mph N/A   Clear
4:53 PM 33.1 °F 24.9 °F 3.9 °F 29% 30.10 in 10.0 mi SE 10.4 mph - N/A   Clear
5:53 PM 32.0 °F 23.6 °F 6.1 °F 34% 30.10 in 10.0 mi SE 10.4 mph - N/A   Clear
6:53 PM 30.9 °F 25.2 °F 7.0 °F 37% 30.10 in 10.0 mi SSE 5.8 mph - N/A   Clear
7:53 PM 28.9 °F 22.8 °F 9.0 °F 43% 30.09 in 10.0 mi SE 5.8 mph - N/A   Clear
8:53 PM 28.0 °F 22.8 °F 9.0 °F 45% 30.09 in 10.0 mi SSE 4.6 mph - N/A   Clear
9:53 PM 28.0 °F 21.7 °F 9.0 °F 45% 30.10 in 10.0 mi SSE 5.8 mph - N/A   Clear
10:53 PM 28.9 °F 23.9 °F 9.0 °F 43% 30.10 in 10.0 mi South 4.6 mph - N/A   Clear
11:53 PM 28.9 °F 23.9 °F 10.0 °F 45% 30.09 in 10.0 mi South 4.6 mph - N/A   Clear